Location: Peterborough
(44.3091°N, 78.3197°W)
Time: 21:27:27
(UTC-04:00)

ISS - Visible Passes

Search period start: 15 April 2026 00:00
Search period end: 25 April 2026 00:00
Orbit: 415 x 424 km, 51.6° (Epoch: 15 April)

Date Brightness Start Highest point End Pass type
(mag) Time Alt. Az. Time Alt. Az. Time Alt. Az.
16 Apr -1.0 05:36:46 10° SSE 05:38:16 12° SE 05:39:44 10° ESE visible
18 Apr -2.3 05:36:53 10° SSW 05:39:55 32° SE 05:42:59 10° ENE visible
19 Apr -1.7 04:50:59 15° S 04:52:39 20° SE 04:55:13 10° E visible
20 Apr -1.1 04:05:31 12° SE 04:05:31 12° SE 04:06:57 10° ESE visible
20 Apr -3.7 05:38:29 11° WSW 05:41:46 86° SSE 05:45:09 10° ENE visible
21 Apr -3.3 04:52:56 29° SSW 04:54:22 53° SE 04:57:41 10° ENE visible
22 Apr -2.5 04:07:18 32° SE 04:07:18 32° SE 04:10:05 10° ENE visible
22 Apr -3.0 05:40:32 10° W 05:43:47 43° NNW 05:47:02 10° NE visible
23 Apr -0.9 03:21:37 13° E 03:21:37 13° E 03:22:17 10° E visible
23 Apr -3.5 04:54:34 26° W 04:56:15 62° NNW 04:59:37 10° NE visible
24 Apr -3.9 04:08:49 86° ESE 04:08:49 86° ESE 04:12:10 10° ENE visible
